Location: Hains Lake
(37.8540°N, 99.8578°W)
Time: 02:49:32
(UTC+00:00)

Vanguard 1 - Pass Details

Date: 07 December 2021
Orbit: 652 x 3830 km, 34.2° (Epoch: 21 January)

Event Time Altitude Azimuth Distance (km) Brightness Sun altitude
Exits shadow 13:05:56 - 281° (W) 6,904 13.7 -7.2°
Reaches altitude 10° 13:08:38 10° 277° (W) 6,370 13.6 -6.7°
Maximum altitude 13:22:21 26° 230° (SW) 4,096 13.0 -4.3°
Drops below altitude 10° 13:31:44 10° 180° (S) 4,227 13.7 -2.6°
Sets 13:35:14 0° 167° (SSE) 4,792 14.3 -2.0°
